QPF
0.00 0.01 0.01 0.01 0.01 0.00 0.00 0.00 0.00 0.00 0.00 0.00 0.00 0.00 0.00 0.00 0.00 0.00 0.00 0.00 0.00 0.00 0.00 0.00 0.00 0.00 0.01 0.01 0.00 0.00 0.00 0.00 0.00 0.01 0.01 0.02 0.03 0.03 0.03 0.04 0.03 0.03 0.03 0.03
0.01 0.00 0.00 0.01 0.01 0.01 0.00 0.00 0.00 0.00 0.00 0.00 0.00 0.00 0.00 0.00 0.00 0.00 0.00 0.00 0.00 0.00 0.00 0.00 0.00 0.00 0.00 0.00 0.00 0.00 0.00 0.00 0.00 0.00 0.01 0.02 0.02 0.02 0.02 0.02 0.02 0.02 0.02 0.02
0.00 0.01 0.00 0.01 0.01 0.01 0.01 0.00 0.00 0.00 0.00 0.00 0.00 0.00 0.00 0.00 0.00 0.00 0.00 0.00 0.00 0.00 0.00 0.00 0.00 0.00 0.00 0.00 0.00 0.00 0.00 0.00 0.00 0.01 0.01 0.02 0.02 0.02 0.02 0.02 0.01 0.02 0.02 0.02
0.00 0.00 0.00 0.01 0.01 0.01 0.01 0.00 0.00 0.00 0.00 0.00 0.00 0.00 0.00 0.00 0.00 0.00 0.00 0.00 0.00 0.00 0.00 0.00 0.00 0.00 0.00 0.00 0.00 0.00 0.00 0.00 0.00 0.01 0.01 0.01 0.01 0.02 0.02 0.02 0.02 0.01 0.01 0.02
0.00 0.00 0.00 0.01 0.01 0.01 0.01 0.01 0.00 0.01 0.01 0.01 0.00 0.01 0.00 0.00 0.00 0.00 0.00 0.00 0.00 0.00 0.00 0.00 0.00 0.00 0.00 0.00 0.00 0.00 0.00 0.00 0.00 0.00 0.01 0.01 0.02 0.02 0.02 0.02 0.02 0.02 0.02 0.03
0.00 0.00 0.00 0.00 0.00 0.00 0.01 0.01 0.02 0.02 0.02 0.02 0.00 0.00 0.00 0.00 0.00 0.00 0.00 0.00 0.00 0.00 0.00 0.00 0.00 0.00 0.00 0.00 0.00 0.00 0.00 0.01 0.01 0.01 0.01 0.01 0.02 0.02 0.02 0.02 0.02 0.02 0.02 0.02
0.00 0.00 0.00 0.00 0.00 0.01 0.01 0.02 0.03 0.02 0.02 0.01 0.00 0.00 0.00 0.00 0.00 0.00 0.00 0.00 0.00 0.00 0.00 0.00 0.01 0.01 0.01 0.01 0.00 0.00 0.00 0.01 0.01 0.01 0.01 0.01 0.01 0.01 0.01 0.02 0.02 0.01 0.02 0.02
0.01 0.00 0.00 0.00 0.00 0.00 0.00 0.02 0.02 0.02 0.01 0.01 0.00 0.00 0.00 0.00 0.00 0.00 0.00 0.00 0.00 0.00 0.00 0.00 0.01 0.00 0.00 0.00 0.00 0.00 0.00 0.00 0.01 0.01 0.01 0.01 0.01 0.01 0.02 0.02 0.01 0.01 0.02 0.02
0.01 0.01 0.00 0.00 0.00 0.00 0.01 0.01 0.01 0.02 0.02 0.01 0.01 0.00 0.00 0.00 0.00 0.00 0.00 0.00 0.00 0.00 0.00 0.00 0.00 0.00 0.00 0.00 0.00 0.00 0.00 0.00 0.00 0.00 0.00 0.00 0.01 0.01 0.01 0.01 0.01 0.02 0.02 0.02
0.02 0.02 0.01 0.00 0.00 0.00 0.01 0.01 0.02 0.03 0.02 0.01 0.01 0.00 0.00 0.00 0.00 0.00 0.00 0.00 0.00 0.00 0.00 0.00 0.00 0.00 0.00 0.00 0.00 0.00 0.00 0.00 0.00 0.01 0.01 0.00 0.00 0.01 0.01 0.01 0.02 0.02 0.02 0.01
0.02 0.03 0.01 0.01 0.00 0.00 0.01 0.01 0.03 0.03 0.03 0.01 0.01 0.00 0.00 0.00 0.00 0.00 0.00 0.00 0.00 0.00 0.00 0.00 0.00 0.00 0.00 0.01 0.00 0.00 0.00 0.00 0.00 0.00 0.00 0.00 0.00 0.01 0.01 0.02 0.02 0.02 0.02 0.02
0.01 0.03 0.01 0.00 0.00 0.00 0.00 0.01 0.03 0.05 0.03 0.02 0.01 0.00 0.00 0.00 0.00 0.00 0.00 0.00 0.00 0.00 0.00 0.00 0.00 0.00 0.01 0.01 0.01 0.01 0.00 0.00 0.00 0.00 0.00 0.00 0.00 0.01 0.01 0.01 0.01 0.01 0.01 0.01
0.03 0.05 0.03 0.01 0.00 0.01 0.01 0.02 0.03 0.04 0.04 0.02 0.02 0.01 0.00 0.00 0.00 0.00 0.01 0.01 0.00 0.00 0.00 0.00 0.00 0.00 0.01 0.01 0.01 0.01 0.00 0.00 0.00 0.00 0.00 0.00 0.00 0.01 0.01 0.01 0.01 0.01 0.01 0.01
0.05 0.05 0.03 0.01 0.00 0.01 0.01 0.01 0.02 0.04 0.05 0.02 0.01 0.01 0.01 0.02 0.02 0.01 0.01 0.01 0.01 0.00 0.00 0.00 0.00 0.00 0.00 0.00 0.00 0.00 0.00 0.00 0.00 0.00 0.00 0.00 0.01 0.01 0.01 0.01 0.01 0.01 0.01 0.01
0.05 0.05 0.02 0.01 0.00 0.00 0.01 0.01 0.01 0.02 0.02 0.03 0.01 0.01 0.02 0.03 0.03 0.02 0.02 0.02 0.01 0.00 0.00 0.00 0.00 0.00 0.00 0.00 0.00 0.00 0.00 0.00 0.00 0.00 0.00 0.01 0.01 0.01 0.01 0.01 0.01 0.01 0.01 0.01
0.03 0.04 0.02 0.01 0.00 0.01 0.01 0.01 0.01 0.01 0.01 0.01 0.01 0.01 0.02 0.03 0.03 0.03 0.03 0.03 0.01 0.00 0.00 0.00 0.01 0.01 0.00 0.00 0.00 0.00 0.00 0.00 0.00 0.01 0.01 0.01 0.01 0.01 0.01 0.01 0.01 0.01 0.01 0.01
0.04 0.04 0.04 0.02 0.01 0.01 0.02 0.01 0.01 0.01 0.02 0.02 0.02 0.02 0.01 0.02 0.03 0.03 0.04 0.04 0.03 0.01 0.01 0.01 0.01 0.00 0.00 0.01 0.01 0.01 0.01 0.01 0.01 0.01 0.01 0.01 0.01 0.02 0.01 0.01 0.01 0.01 0.01 0.01
0.04 0.04 0.05 0.04 0.03 0.03 0.02 0.01 0.01 0.01 0.02 0.02 0.02 0.01 0.01 0.02 0.02 0.02 0.03 0.03 0.03 0.02 0.02 0.01 0.01 0.01 0.01 0.01 0.01 0.01 0.01 0.01 0.01 0.01 0.01 0.01 0.01 0.02 0.02 0.02 0.01 0.01 0.01 0.01
0.03 0.04 0.06 0.05 0.04 0.02 0.01 0.01 0.01 0.01 0.02 0.01 0.01 0.01 0.01 0.01 0.01 0.01 0.03 0.03 0.03 0.03 0.03 0.02 0.02 0.02 0.02 0.02 0.01 0.01 0.01 0.01 0.02 0.02 0.02 0.01 0.01 0.01 0.01 0.02 0.02 0.01 0.01 0.01
0.02 0.04 0.06 0.06 0.05 0.02 0.01 0.00 0.00 0.01 0.01 0.00 0.01 0.01 0.01 0.01 0.01 0.02 0.03 0.03 0.03 0.03 0.03 0.03 0.03 0.03 0.03 0.02 0.02 0.01 0.01 0.01 0.03 0.03 0.02 0.01 0.01 0.01 0.01 0.01 0.01 0.01 0.01 0.01
0.01 0.03 0.05 0.05 0.04 0.02 0.01 0.00 0.00 0.01 0.01 0.01 0.01 0.01 0.02 0.02 0.02 0.02 0.02 0.02 0.03 0.03 0.03 0.03 0.02 0.02 0.02 0.02 0.03 0.02 0.01 0.01 0.03 0.03 0.02 0.01 0.01 0.01 0.01 0.01 0.01 0.01 0.01 0.01
0.01 0.02 0.02 0.03 0.04 0.02 0.01 0.01 0.01 0.01 0.01 0.01 0.01 0.01 0.01 0.01 0.01 0.02 0.02 0.02 0.02 0.02 0.02 0.02 0.02 0.02 0.02 0.02 0.02 0.02 0.01 0.02 0.02 0.03 0.03 0.01 0.01 0.00 0.01 0.01 0.01 0.01 0.01 0.01
0.01 0.01 0.01 0.02 0.02 0.01 0.01 0.01 0.01 0.01 0.01 0.01 0.01 0.01 0.01 0.01 0.01 0.01 0.02 0.01 0.01 0.01 0.01 0.02 0.02 0.01 0.01 0.01 0.01 0.02 0.02 0.02 0.02 0.03 0.04 0.02 0.01 0.01 0.01 0.01 0.01 0.01 0.01 0.01
0.01 0.01 0.01 0.01 0.01 0.01 0.01 0.01 0.01 0.01 0.01 0.01 0.01 0.01 0.01 0.00 0.00 0.01 0.02 0.01 0.01 0.01 0.01 0.01 0.01 0.01 0.01 0.01 0.01 0.02 0.02 0.02 0.01 0.02 0.04 0.03 0.01 0.01 0.01 0.01 0.01 0.01 0.01 0.02
0.01 0.01 0.01 0.01 0.01 0.01 0.01 0.01 0.00 0.00 0.00 0.00 0.00 0.00 0.00 0.00 0.00 0.01 0.02 0.01 0.01 0.01 0.01 0.01 0.01 0.01 0.01 0.01 0.01 0.02 0.03 0.02 0.02 0.01 0.02 0.03 0.02 0.02 0.01 0.01 0.02 0.02 0.01 0.02
0.00 0.01 0.01 0.01 0.00 0.01 0.00 0.00 0.00 0.00 0.00 0.00 0.00 0.00 0.00 0.00 0.01 0.01 0.02 0.01 0.01 0.01 0.01 0.01 0.01 0.01 0.01 0.01 0.01 0.01 0.03 0.03 0.02 0.01 0.01 0.02 0.02 0.01 0.01 0.01 0.02 0.02 0.02 0.02
MSLP
1015.88 1015.91 1015.95 1016.01 1016.12 1016.27 1016.44 1016.58 1016.61 1016.49 1016.17 1015.63 1014.90 1014.04 1013.14 1012.30 1011.62 1011.16 1010.95 1010.97 1011.17 1011.48 1011.83 1012.15 1012.41 1012.59 1012.75 1012.92 1013.14 1013.47 1013.90 1014.42 1014.97 1015.49 1015.92 1016.21 1016.34 1016.31 1016.17 1016.00 1015.84 1015.77 1015.79 1015.91
1015.81 1015.78 1015.79 1015.87 1016.04 1016.30 1016.62 1016.92 1017.10 1017.11 1016.85 1016.33 1015.54 1014.57 1013.52 1012.51 1011.65 1011.03 1010.70 1010.63 1010.79 1011.10 1011.46 1011.79 1012.06 1012.25 1012.39 1012.52 1012.69 1012.96 1013.35 1013.83 1014.37 1014.90 1015.35 1015.67 1015.83 1015.83 1015.71 1015.55 1015.40 1015.32 1015.36 1015.50
1015.68 1015.62 1015.61 1015.72 1015.97 1016.35 1016.81 1017.26 1017.60 1017.71 1017.52 1016.99 1016.14 1015.06 1013.85 1012.66 1011.64 1010.87 1010.42 1010.28 1010.40 1010.71 1011.08 1011.44 1011.73 1011.91 1012.02 1012.11 1012.22 1012.41 1012.73 1013.15 1013.65 1014.17 1014.63 1014.97 1015.17 1015.21 1015.13 1014.98 1014.85 1014.79 1014.84 1015.00
1015.56 1015.49 1015.50 1015.65 1015.99 1016.48 1017.07 1017.65 1018.10 1018.29 1018.12 1017.56 1016.63 1015.42 1014.05 1012.70 1011.51 1010.61 1010.06 1009.87 1009.98 1010.29 1010.70 1011.10 1011.41 1011.59 1011.67 1011.69 1011.73 1011.83 1012.04 1012.38 1012.82 1013.29 1013.74 1014.11 1014.34 1014.43 1014.39 1014.29 1014.20 1014.16 1014.23 1014.42
1015.51 1015.45 1015.50 1015.73 1016.14 1016.74 1017.43 1018.11 1018.62 1018.83 1018.64 1018.01 1016.97 1015.61 1014.08 1012.57 1011.25 1010.24 1009.62 1009.40 1009.52 1009.87 1010.33 1010.77 1011.11 1011.30 1011.35 1011.31 1011.24 1011.23 1011.32 1011.55 1011.89 1012.31 1012.73 1013.10 1013.37 1013.51 1013.53 1013.49 1013.43 1013.43 1013.53 1013.75
1015.56 1015.55 1015.66 1015.96 1016.46 1017.14 1017.90 1018.62 1019.14 1019.31 1019.05 1018.30 1017.12 1015.61 1013.93 1012.28 1010.84 1009.76 1009.11 1008.89 1009.05 1009.46 1009.98 1010.48 1010.86 1011.06 1011.08 1010.96 1010.80 1010.65 1010.61 1010.71 1010.94 1011.27 1011.65 1012.01 1012.30 1012.49 1012.57 1012.59 1012.59 1012.63 1012.76 1013.00
1015.74 1015.79 1015.97 1016.34 1016.91 1017.64 1018.43 1019.14 1019.61 1019.69 1019.31 1018.42 1017.09 1015.42 1013.61 1011.85 1010.34 1009.22 1008.57 1008.39 1008.60 1009.08 1009.68 1010.24 1010.66 1010.87 1010.86 1010.68 1010.41 1010.14 1009.96 1009.91 1010.02 1010.25 1010.57 1010.90 1011.20 1011.42 1011.56 1011.63 1011.68 1011.77 1011.93 1012.20
1015.99 1016.10 1016.34 1016.78 1017.40 1018.15 1018.92 1019.57 1019.94 1019.90 1019.37 1018.34 1016.86 1015.07 1013.15 1011.33 1009.79 1008.68 1008.06 1007.93 1008.21 1008.76 1009.43 1010.05 1010.50 1010.71 1010.68 1010.44 1010.08 1009.69 1009.37 1009.18 1009.16 1009.29 1009.53 1009.82 1010.11 1010.35 1010.53 1010.65 1010.75 1010.87 1011.06 1011.35
1016.25 1016.39 1016.69 1017.16 1017.80 1018.53 1019.24 1019.80 1020.04 1019.86 1019.18 1018.01 1016.42 1014.55 1012.60 1010.77 1009.25 1008.18 1007.62 1007.56 1007.91 1008.52 1009.24 1009.90 1010.36 1010.57 1010.50 1010.21 1009.76 1009.27 1008.84 1008.53 1008.38 1008.41 1008.56 1008.80 1009.06 1009.30 1009.50 1009.65 1009.79 1009.95 1010.16 1010.46
1016.39 1016.56 1016.89 1017.37 1017.98 1018.66 1019.28 1019.71 1019.81 1019.48 1018.67 1017.40 1015.75 1013.87 1011.95 1010.18 1008.75 1007.78 1007.30 1007.31 1007.71 1008.36 1009.09 1009.75 1010.20 1010.38 1010.27 1009.92 1009.41 1008.84 1008.31 1007.90 1007.65 1007.58 1007.65 1007.82 1008.05 1008.27 1008.47 1008.65 1008.81 1009.00 1009.23 1009.55
1016.33 1016.52 1016.84 1017.30 1017.85 1018.43 1018.93 1019.21 1019.16 1018.70 1017.79 1016.48 1014.85 1013.04 1011.23 1009.61 1008.32 1007.48 1007.11 1007.19 1007.62 1008.26 1008.96 1009.56 1009.96 1010.08 1009.92 1009.51 1008.95 1008.32 1007.72 1007.24 1006.91 1006.75 1006.75 1006.86 1007.04 1007.24 1007.44 1007.62 1007.81 1008.02 1008.28 1008.62
1016.04 1016.22 1016.52 1016.92 1017.39 1017.84 1018.18 1018.29 1018.09 1017.52 1016.57 1015.27 1013.73 1012.07 1010.45 1009.04 1007.96 1007.28 1007.03 1007.17 1007.60 1008.19 1008.81 1009.31 1009.60 1009.63 1009.39 1008.92 1008.31 1007.64 1007.00 1006.47 1006.09 1005.88 1005.81 1005.87 1006.00 1006.17 1006.37 1006.56 1006.78 1007.02 1007.32 1007.69
1015.54 1015.71 1015.97 1016.30 1016.64 1016.93 1017.09 1017.03 1016.69 1016.03 1015.07 1013.84 1012.45 1011.01 1009.65 1008.50 1007.66 1007.17 1007.05 1007.22 1007.62 1008.13 1008.61 1008.96 1009.10 1009.00 1008.66 1008.13 1007.48 1006.78 1006.13 1005.58 1005.17 1004.92 1004.81 1004.82 1004.92 1005.08 1005.27 1005.49 1005.74 1006.03 1006.38 1006.80
1014.91 1015.07 1015.29 1015.52 1015.72 1015.83 1015.80 1015.56 1015.08 1014.35 1013.41 1012.29 1011.10 1009.92 1008.86 1008.01 1007.43 1007.14 1007.12 1007.33 1007.66 1008.04 1008.35 1008.51 1008.47 1008.21 1007.76 1007.15 1006.46 1005.75 1005.10 1004.55 1004.14 1003.87 1003.74 1003.73 1003.82 1003.97 1004.17 1004.42 1004.72 1005.07 1005.49 1005.96
1014.27 1014.43 1014.59 1014.72 1014.76 1014.69 1014.46 1014.04 1013.43 1012.65 1011.74 1010.77 1009.79 1008.89 1008.14 1007.59 1007.27 1007.17 1007.25 1007.45 1007.70 1007.92 1008.02 1007.97 1007.73 1007.30 1006.72 1006.04 1005.31 1004.60 1003.96 1003.43 1003.04 1002.79 1002.66 1002.65 1002.73 1002.89 1003.12 1003.42 1003.77 1004.20 1004.68 1005.21
1013.71 1013.88 1013.99 1014.01 1013.90 1013.64 1013.22 1012.63 1011.91 1011.09 1010.24 1009.40 1008.64 1008.02 1007.56 1007.30 1007.21 1007.26 1007.41 1007.59 1007.72 1007.76 1007.65 1007.37 1006.92 1006.32 1005.62 1004.86 1004.10 1003.40 1002.79 1002.31 1001.95 1001.73 1001.63 1001.63 1001.73 1001.92 1002.19 1002.53 1002.95 1003.44 1003.98 1004.57
1013.29 1013.47 1013.53 1013.46 1013.21 1012.78 1012.19 1011.46 1010.65 1009.82 1009.02 1008.32 1007.76 1007.38 1007.18 1007.15 1007.25 1007.42 1007.59 1007.71 1007.72 1007.57 1007.24 1006.74 1006.09 1005.33 1004.52 1003.70 1002.93 1002.25 1001.69 1001.25 1000.95 1000.78 1000.72 1000.75 1000.89 1001.11 1001.41 1001.80 1002.27 1002.81 1003.41 1004.03
1012.99 1013.17 1013.20 1013.04 1012.68 1012.13 1011.41 1010.59 1009.72 1008.89 1008.16 1007.59 1007.21 1007.02 1007.02 1007.17 1007.39 1007.61 1007.77 1007.81 1007.67 1007.34 1006.81 1006.11 1005.29 1004.40 1003.50 1002.64 1001.87 1001.23 1000.72 1000.35 1000.12 1000.00 999.99 1000.07 1000.23 1000.48 1000.82 1001.24 1001.74 1002.31 1002.91 1003.53
1012.71 1012.88 1012.88 1012.66 1012.23 1011.61 1010.83 1009.96 1009.09 1008.31 1007.66 1007.21 1006.97 1006.94 1007.08 1007.33 1007.61 1007.84 1007.94 1007.86 1007.57 1007.06 1006.36 1005.49 1004.53 1003.54 1002.58 1001.71 1000.97 1000.37 999.93 999.64 999.47 999.41 999.45 999.57 999.76 1000.04 1000.39 1000.81 1001.31 1001.86 1002.45 1003.03
1012.32 1012.47 1012.45 1012.21 1011.76 1011.12 1010.34 1009.51 1008.70 1008.00 1007.46 1007.13 1007.01 1007.09 1007.31 1007.60 1007.87 1008.05 1008.06 1007.85 1007.41 1006.74 1005.88 1004.89 1003.83 1002.78 1001.80 1000.94 1000.23 999.69 999.32 999.10 999.00 998.99 999.07 999.22 999.43 999.71 1000.05 1000.45 1000.91 1001.41 1001.93 1002.44
1011.71 1011.84 1011.80 1011.57 1011.14 1010.56 1009.86 1009.13 1008.45 1007.87 1007.47 1007.25 1007.24 1007.39 1007.64 1007.92 1008.14 1008.22 1008.11 1007.77 1007.18 1006.38 1005.40 1004.31 1003.19 1002.11 1001.14 1000.31 999.65 999.17 998.86 998.70 998.65 998.69 998.80 998.96 999.17 999.42 999.72 1000.07 1000.46 1000.88 1001.30 1001.71
1010.84 1010.93 1010.89 1010.70 1010.35 1009.88 1009.33 1008.77 1008.25 1007.85 1007.59 1007.50 1007.57 1007.76 1008.00 1008.23 1008.36 1008.33 1008.09 1007.61 1006.89 1005.97 1004.91 1003.77 1002.62 1001.54 1000.59 999.81 999.20 998.77 998.52 998.39 998.38 998.44 998.55 998.71 998.89 999.10 999.34 999.61 999.91 1000.22 1000.53 1000.82
1009.76 1009.81 1009.79 1009.65 1009.42 1009.11 1008.75 1008.39 1008.08 1007.86 1007.77 1007.80 1007.94 1008.14 1008.35 1008.50 1008.52 1008.36 1007.98 1007.37 1006.55 1005.55 1004.44 1003.27 1002.13 1001.07 1000.16 999.41 998.84 998.46 998.23 998.13 998.12 998.18 998.28 998.40 998.54 998.69 998.86 999.04 999.23 999.43 999.63 999.81
1008.60 1008.62 1008.62 1008.57 1008.48 1008.34 1008.19 1008.05 1007.96 1007.93 1007.99 1008.11 1008.30 1008.49 1008.64 1008.69 1008.60 1008.31 1007.81 1007.10 1006.19 1005.14 1004.00 1002.84 1001.72 1000.70 999.82 999.11 998.57 998.20 997.98 997.87 997.85 997.88 997.94 998.02 998.10 998.19 998.28 998.37 998.47 998.57 998.67 998.76
1007.55 1007.56 1007.59 1007.64 1007.69 1007.73 1007.78 1007.85 1007.94 1008.08 1008.25 1008.45 1008.64 1008.80 1008.88 1008.82 1008.61 1008.20 1007.59 1006.80 1005.84 1004.76 1003.62 1002.49 1001.40 1000.42 999.57 998.89 998.36 997.99 997.75 997.61 997.55 997.54 997.55 997.58 997.61 997.64 997.66 997.69 997.71 997.73 997.76 997.79
1006.83 1006.84 1006.93 1007.06 1007.24 1007.43 1007.65 1007.88 1008.12 1008.37 1008.61 1008.82 1008.99 1009.09 1009.06 1008.90 1008.56 1008.05 1007.35 1006.50 1005.51 1004.44 1003.32 1002.22 1001.17 1000.23 999.42 998.75 998.22 997.83 997.55 997.37 997.26 997.20 997.17 997.15 997.13 997.11 997.10 997.08 997.06 997.04 997.04 997.05
Thickness
5574 5565 5560 5565 5566 5567 5564 5559 5557 5563 5566 5561 5558 5561 5569 5570 5567 5567 5568 5569 5571 5574 5576 5576 5576 5575 5575 5574 5574 5574 5574 5573 5572 5571 5570 5570 5569 5569 5570 5570 5570 5569 5569 5568
5558 5557 5565 5566 5564 5560 5556 5552 5551 5555 5556 5553 5548 5553 5561 5563 5564 5565 5564 5564 5565 5565 5565 5567 5566 5566 5566 5566 5566 5566 5565 5564 5564 5563 5562 5561 5560 5559 5559 5559 5559 5559 5558 5557
5553 5558 5563 5561 5556 5552 5550 5545 5545 5544 5543 5542 5537 5542 5551 5557 5560 5560 5560 5560 5559 5559 5558 5558 5557 5556 5556 5557 5557 5558 5557 5556 5555 5554 5553 5551 5550 5548 5548 5548 5548 5548 5547 5547
5548 5555 5556 5553 5550 5548 5544 5548 5543 5537 5525 5518 5524 5520 5544 5547 5549 5552 5552 5551 5550 5551 5550 5550 5549 5548 5548 5549 5549 5549 5548 5547 5546 5545 5544 5542 5541 5540 5539 5538 5537 5537 5537 5536
5543 5546 5546 5545 5547 5545 5540 5541 5535 5528 5518 5511 5513 5509 5532 5539 5542 5548 5547 5546 5545 5544 5543 5543 5542 5541 5540 5539 5539 5538 5537 5537 5537 5536 5535 5533 5532 5531 5530 5528 5527 5527 5527 5527
5537 5541 5541 5541 5541 5540 5534 5528 5522 5511 5504 5504 5511 5504 5521 5530 5540 5545 5544 5541 5539 5537 5536 5535 5534 5532 5530 5529 5528 5528 5527 5527 5527 5526 5525 5524 5523 5522 5520 5519 5518 5518 5517 5517
5526 5531 5534 5534 5531 5529 5523 5512 5502 5498 5490 5500 5508 5504 5520 5538 5540 5540 5539 5535 5532 5529 5527 5525 5524 5522 5521 5520 5519 5519 5518 5517 5517 5517 5516 5516 5515 5514 5513 5512 5510 5509 5509 5508
5511 5515 5524 5526 5525 5519 5515 5509 5498 5496 5489 5494 5500 5501 5525 5536 5535 5533 5531 5528 5524 5521 5519 5518 5517 5515 5513 5512 5511 5510 5509 5509 5508 5508 5507 5507 5506 5506 5505 5504 5502 5501 5501 5501
5504 5508 5518 5520 5520 5518 5508 5500 5501 5486 5478 5479 5491 5499 5519 5531 5526 5524 5521 5518 5515 5514 5512 5510 5509 5507 5505 5504 5503 5503 5502 5501 5501 5500 5499 5498 5498 5497 5497 5496 5495 5494 5494 5494
5504 5497 5505 5509 5512 5510 5507 5498 5484 5478 5478 5480 5489 5492 5505 5520 5518 5516 5511 5508 5507 5505 5503 5502 5501 5499 5498 5497 5496 5495 5494 5494 5493 5491 5490 5491 5489 5489 5489 5488 5487 5486 5486 5486
5498 5488 5489 5495 5497 5498 5495 5491 5484 5473 5471 5471 5473 5497 5515 5513 5512 5507 5504 5502 5499 5496 5495 5494 5493 5492 5491 5489 5488 5487 5486 5486 5484 5483 5482 5481 5481 5481 5480 5480 5479 5479 5479 5479
5488 5478 5475 5484 5492 5494 5492 5489 5479 5473 5469 5462 5463 5490 5515 5508 5505 5501 5499 5496 5492 5491 5489 5487 5486 5484 5483 5481 5480 5479 5479 5478 5477 5476 5474 5473 5473 5472 5472 5472 5472 5471 5471 5472
5481 5471 5470 5477 5478 5480 5479 5479 5474 5466 5459 5454 5457 5487 5507 5500 5498 5495 5491 5488 5485 5485 5483 5481 5479 5477 5476 5474 5473 5472 5472 5471 5470 5469 5467 5466 5465 5465 5465 5465 5465 5464 5464 5464
5478 5465 5469 5479 5482 5473 5469 5472 5469 5462 5457 5457 5465 5483 5496 5495 5490 5487 5483 5480 5478 5479 5478 5475 5473 5471 5470 5469 5467 5466 5464 5464 5463 5461 5460 5459 5458 5458 5458 5459 5458 5458 5458 5457
5469 5460 5458 5465 5471 5468 5469 5471 5467 5462 5463 5462 5474 5475 5489 5489 5483 5480 5477 5474 5473 5474 5473 5471 5468 5465 5464 5462 5461 5459 5457 5457 5456 5455 5454 5453 5452 5451 5451 5451 5451 5451 5451 5451
5458 5454 5454 5456 5463 5461 5464 5471 5469 5467 5466 5466 5469 5476 5488 5483 5477 5474 5472 5471 5470 5470 5469 5467 5464 5461 5459 5457 5455 5453 5451 5450 5449 5448 5448 5447 5446 5445 5444 5445 5444 5444 5444 5443
5448 5446 5445 5450 5451 5454 5460 5473 5470 5467 5467 5467 5468 5479 5480 5475 5473 5472 5469 5468 5467 5466 5464 5462 5459 5456 5454 5452 5450 5447 5446 5444 5443 5442 5441 5440 5439 5438 5438 5438 5437 5437 5437 5436
5443 5439 5434 5438 5441 5449 5481 5479 5475 5471 5471 5469 5470 5472 5472 5472 5470 5469 5466 5463 5462 5461 5459 5457 5454 5452 5450 5447 5444 5442 5440 5438 5437 5435 5434 5434 5433 5432 5432 5430 5430 5430 5430 5429
5442 5436 5429 5429 5434 5450 5469 5473 5467 5463 5466 5469 5467 5468 5467 5464 5461 5463 5464 5461 5459 5457 5455 5452 5449 5446 5444 5441 5439 5436 5434 5432 5431 5430 5428 5428 5428 5426 5425 5424 5424 5423 5422 5421
5432 5431 5427 5424 5433 5447 5471 5471 5467 5463 5460 5468 5463 5461 5459 5454 5451 5457 5459 5455 5453 5451 5449 5446 5443 5440 5438 5436 5434 5431 5429 5427 5426 5425 5424 5424 5422 5421 5420 5418 5417 5415 5414 5414
5422 5422 5422 5421 5426 5443 5460 5459 5459 5452 5463 5465 5460 5456 5451 5448 5449 5450 5449 5447 5446 5445 5443 5441 5437 5435 5434 5431 5428 5426 5425 5423 5422 5421 5419 5418 5417 5415 5414 5411 5409 5407 5406 5405
5422 5417 5415 5416 5422 5443 5456 5449 5449 5456 5458 5457 5454 5451 5447 5444 5443 5442 5441 5440 5439 5437 5436 5434 5432 5430 5428 5426 5424 5422 5420 5419 5417 5415 5413 5411 5410 5409 5407 5404 5402 5400 5399 5397
5423 5429 5427 5431 5447 5455 5449 5450 5452 5450 5448 5449 5446 5443 5440 5437 5436 5435 5434 5432 5431 5430 5429 5427 5425 5423 5422 5420 5419 5416 5415 5413 5411 5408 5406 5404 5403 5401 5399 5397 5395 5393 5391 5390
5424 5425 5424 5424 5439 5445 5444 5444 5444 5442 5441 5442 5439 5436 5433 5431 5430 5429 5427 5426 5424 5423 5422 5421 5419 5416 5415 5413 5412 5410 5409 5407 5404 5402 5400 5398 5396 5394 5391 5390 5388 5387 5385 5384
5429 5420 5419 5424 5435 5438 5442 5440 5440 5438 5436 5434 5432 5430 5428 5425 5423 5421 5420 5419 5417 5417 5416 5414 5413 5411 5409 5408 5406 5404 5402 5400 5397 5395 5393 5391 5390 5387 5385 5383 5381 5381 5381 5380
5427 5424 5426 5437 5441 5436 5441 5441 5437 5433 5432 5430 5426 5423 5421 5418 5417 5415 5412 5411 5410 5409 5409 5407 5406 5405 5403 5401 5400 5398 5396 5394 5391 5390 5388 5385 5383 5380 5378 5376 5375 5375 5375 5375